| time (UTC) | temp F | wind direction | speed MPH | gust MPH | rain 1hr in | rain 24hr in | rain mn in | humidity % | barometer mb |
| 20260504191528 | 51 | 282 | 5.0 | 7.0 | 0.00 | 0.20 | 0.02 | 99 | |
| 20260504190524 | 51 | 283 | 5.0 | 8.0 | 0.00 | 0.20 | 0.02 | 99 | |
| 20260504185528 | 51 | 280 | 6.0 | 9.0 | 0.00 | 0.20 | 0.02 | 99 | |
| 20260504184524 | 51 | 278 | 5.0 | 6.0 | 0.00 | 0.20 | 0.02 | 99 | |
| 20260504183543 | 51 | 278 | 5.0 | 7.0 | 0.00 | 0.20 | 0.02 | 99 | |
| 20260504182527 | 51 | 283 | 5.0 | 6.0 | 0.00 | 0.20 | 0.02 | 99 | |
| 20260504181542 | 51 | 280 | 6.0 | 7.0 | 0.00 | 0.20 | 0.02 | 99 | |
| 20260504180527 | 51 | 277 | 6.0 | 8.0 | 0.00 | 0.20 | 0.02 | 99 | |
| 20260504175524 | 51 | 280 | 5.0 | 8.0 | 0.00 | 0.20 | 0.02 | 99 | |
| 20260504174549 | 51 | 281 | 6.0 | 8.0 | 0.00 | 0.20 | 0.02 | 99 | |
| 20260504173525 | 51 | 275 | 6.0 | 8.0 | 0.00 | 0.20 | 0.02 | 98 | |
| 20260504172521 | 51 | 270 | 6.0 | 9.0 | 0.00 | 0.20 | 0.02 | 98 | |
| 20260504171548 | 51 | 283 | 6.0 | 8.0 | 0.00 | 0.20 | 0.02 | 98 | |
| 20260504170522 | 50 | 279 | 7.0 | 9.0 | 0.00 | 0.20 | 0.02 | 98 | |
| 20260504150522 | 52 | 288 | 8.0 | 11.0 | 0.00 | 0.20 | 0.02 | 97 | |
| 20260504140525 | 51 | 280 | 7.0 | 10.0 | 0.00 | 0.20 | 0.02 | 98 | |
| 20260504130529 | 51 | 281 | 6.0 | 8.0 | 0.00 | 0.20 | 0.02 | 96 | |
| 20260504110527 | 52 | 263 | 8.0 | 10.0 | 0.00 | 0.20 | 0.02 | 91 | |
| 20260504100522 | 53 | 257 | 9.0 | 13.0 | 0.00 | 0.20 | 0.02 | 90 | |
| 20260504081525 | 56 | 255 | 20.0 | 26.0 | 0.00 | 0.20 | 0.02 | 81 | |
| 20260504080521 | 56 | 253 | 17.0 | 21.0 | 0.00 | 0.20 | 0.02 | 78 | |
| 20260504050523 | 58 | 248 | 15.0 | 20.0 | 0.01 | 0.20 | 0.02 | 88 | |
| 20260504045528 | 58 | 250 | 15.0 | 21.0 | 0.01 | 0.20 | 0.02 | 86 | |
| 20260504044525 | 57 | 243 | 14.0 | 21.0 | 0.01 | 0.20 | 0.02 | 90 | |
| 20260504043521 | 56 | 243 | 11.0 | 15.0 | 0.00 | 0.20 | 0.01 | 90 | |
| 20260504042526 | 56 | 212 | 6.0 | 9.0 | 0.00 | 0.19 | 0.01 | 88 | |
| 20260504041523 | 56 | 246 | 14.0 | 21.0 | 0.00 | 0.19 | 0.01 | 90 | |
| 20260504040527 | 58 | 262 | 17.0 | 24.0 | 0.00 | 0.19 | 0.01 | 86 | |
| 20260504035523 | 59 | 260 | 17.0 | 23.0 | 0.00 | 0.19 | 0.01 | 84 | |
| 20260504034528 | 59 | 253 | 20.0 | 28.0 | 0.00 | 0.19 | 0.01 | 82 | |
| 20260504033525 | 59 | 264 | 20.0 | 30.0 | 0.00 | 0.19 | 0.01 | 82 | |
| 20260504032521 | 59 | 269 | 21.0 | 32.0 | 0.00 | 0.19 | 0.01 | 84 | |
| 20260504031525 | 59 | 274 | 23.0 | 32.0 | 0.00 | 0.19 | 0.01 | 84 | |
| 20260504030523 | 58 | 285 | 21.0 | 27.0 | 0.00 | 0.19 | 0.01 | 88 | |
| 20260504025527 | 58 | 280 | 21.0 | 29.0 | 0.00 | 0.19 | 0.01 | 89 | |
| 20260504024524 | 58 | 276 | 21.0 | 29.0 | 0.00 | 0.19 | 0.01 | 87 | |
| 20260504023529 | 58 | 270 | 21.0 | 28.0 | 0.00 | 0.19 | 0.01 | 84 | |
| 20260504022525 | 58 | 268 | 23.0 | 28.0 | 0.00 | 0.19 | 0.01 | 88 | |
| 20260504021520 | 57 | 277 | 24.0 | 31.0 | 0.00 | 0.19 | 0.01 | 91 | |
| 20260504020526 | 57 | 277 | 21.0 | 29.0 | 0.00 | 0.19 | 0.01 | 92 | |
| 20260504015522 | 57 | 278 | 22.0 | 29.0 | 0.00 | 0.19 | 0.01 | 93 | |
| 20260504014528 | 56 | 275 | 23.0 | 28.0 | 0.00 | 0.19 | 0.01 | 96 | |
| 20260504013543 | 56 | 281 | 22.0 | 29.0 | 0.00 | 0.19 | 0.01 | 99 | |
| 20260504012528 | 55 | 284 | 19.0 | 26.0 | 0.00 | 0.19 | 0.01 | 99 | |
| 20260504011546 | 54 | 284 | 18.0 | 23.0 | 0.00 | 0.19 | 0.01 | 99 | |
| 20260504010521 | 54 | 283 | 17.0 | 23.0 | 0.00 | 0.19 | 0.01 | 99 | |
| 20260504005526 | 54 | 281 | 18.0 | 24.0 | 0.01 | 0.19 | 0.01 | 99 | |
| 20260504004521 | 53 | 279 | 21.0 | 26.0 | 0.01 | 0.19 | 0.01 | 99 | |
| 20260504003527 | 53 | 281 | 19.0 | 26.0 | 0.02 | 0.19 | 0.01 | 99 | |
| 20260504002524 | 53 | 282 | 19.0 | 27.0 | 0.03 | 0.19 | 0.01 | 99 | |
| 20260504001528 | 53 | 286 | 20.0 | 26.0 | 0.04 | 0.19 | 0.01 | 99 | |
| 20260504000525 | 53 | 283 | 21.0 | 27.0 | 0.05 | 0.19 | 0.00 | 99 | |
| 20260503235521 | 53 | 285 | 20.0 | 28.0 | 0.06 | 0.19 | 0.19 | 99 | |
| 20260503234526 | 53 | 285 | 21.0 | 31.0 | 0.08 | 0.18 | 0.18 | 99 | |
| 20260503233523 | 52 | 286 | 23.0 | 31.0 | 0.12 | 0.18 | 0.18 | 99 | |
| 20260503232549 | 52 | 287 | 24.0 | 32.0 | 0.12 | 0.16 | 0.16 | 99 | |
| 20260503231523 | 52 | 290 | 21.0 | 26.0 | 0.11 | 0.15 | 0.15 | 99 | |
| 20260503230529 | 52 | 293 | 15.0 | 21.0 | 0.10 | 0.14 | 0.14 | 99 | |
| 20260503225525 | 52 | 288 | 18.0 | 24.0 | 0.10 | 0.13 | 0.13 | 99 | |
| 20260503224521 | 52 | 284 | 18.0 | 25.0 | 0.08 | 0.10 | 0.10 | 99 | |
| 20260503223526 | 52 | 283 | 21.0 | 28.0 | 0.04 | 0.06 | 0.06 | 99 | |
| 20260503222543 | 52 | 289 | 19.0 | 30.0 | 0.02 | 0.04 | 0.04 | 99 | |
| 20260503221528 | 51 | 289 | 20.0 | 26.0 | 0.02 | 0.04 | 0.04 | 99 | |
| 20260503220523 | 51 | 290 | 19.0 | 27.0 | 0.02 | 0.04 | 0.04 | 99 | |
| 20260503215528 | 51 | 297 | 20.0 | 28.0 | 0.02 | 0.03 | 0.03 | 99 | |
| 20260503214525 | 51 | 297 | 20.0 | 26.0 | 0.02 | 0.02 | 0.02 | 99 | |
| 20260503213542 | 51 | 297 | 19.0 | 24.0 | 0.01 | 0.02 | 0.02 | 99 | |
| 20260503212526 | 51 | 294 | 17.0 | 24.0 | 0.01 | 0.02 | 0.02 | 99 | |
| 20260503211522 | 51 | 295 | 16.0 | 20.0 | 0.01 | 0.02 | 0.02 | 99 | |
| 20260503210527 | 51 | 290 | 17.0 | 24.0 | 0.01 | 0.01 | 0.01 | 99 | |
| 20260503205523 | 51 | 291 | 18.0 | 25.0 | 0.00 | 0.01 | 0.01 | 99 | |
| 20260503204528 | 51 | 293 | 19.0 | 26.0 | 0.00 | 0.01 | 0.01 | 99 | |
| 20260503203546 | 51 | 292 | 20.0 | 26.0 | 0.00 | 0.01 | 0.01 | 99 | |
| 20260503202542 | 51 | 295 | 20.0 | 28.0 | 0.00 | 0.00 | 0.00 | 99 | |
| 20260503201526 | 51 | 294 | 20.0 | 28.0 | 0.00 | 0.00 | 0.00 | 98 | |
| 20260503200522 | 51 | 293 | 18.0 | 24.0 | 0.00 | 0.00 | 0.00 | 98 | |
| 20260503195527 | 51 | 291 | 18.0 | 24.0 | 0.00 | 0.00 | 0.00 | 98 | |
| 20260503194525 | 51 | 290 | 17.0 | 23.0 | 0.00 | 0.00 | 0.00 | 98 | |
| 20260503193528 | 50 | 292 | 18.0 | 24.0 | 0.00 | 0.00 | 0.00 | 98 | |
| 20260503192525 | 51 | 289 | 16.0 | 21.0 | 0.00 | 0.00 | 0.00 | 97 |